weather.gov     
National Weather Service

Terminal Aerodrome Forecast
NWS Homepage
This page is being discontinued on March 12, 2014.
The same data is available at this site. Please update your bookmarks.
Thank you, and we apologize for the inconvenience.
Please send an email to SR-SRH.Webmaster@noaa.gov with any concerns.


Current Version
Previous Version:    01  02  03  04  05  06  07  08  09  10  11  12  13  14  15  16  17  18  19  20  21  22  23  24  25  26  27  28  29  30  
   31  
[Printable]
312
FTAK31 PANC 281741
TAFAVD
TAF
PAVD 281741Z 2818/2918 VRB03KT P6SM FEW200
     FM282300 VRB03KT P6SM FEW050 BKN120
     FM290400 08007KT P6SM VCSH SCT030 BKN050
     FM290900 08010KT 6SM -SN BKN025 OVC040
      AMD LTD TO CLD VIS AND WIND=




312
FTAK31 PANC 281741
TAFAVD
TAF
PAVD 281741Z 2818/2918 VRB03KT P6SM FEW200
     FM282300 VRB03KT P6SM FEW050 BKN120
     FM290400 08007KT P6SM VCSH SCT030 BKN050
     FM290900 08010KT 6SM -SN BKN025 OVC040
      AMD LTD TO CLD VIS AND WIND=


U.S. Dept. of Commerce
NOAA National Weather Service
1325 East West Highway
Silver Spring, MD 20910
E-mail: w-nws.webmaster@noaa.gov
Page last modified: May 16, 2007
NATIONAL WEATHER SERVICE: for Safety, for Work, for Fun - FOR LIFE